Temp
6 6 6 5 5 5 4 4 4 4 4 4 4 5 4 4 4 6 13 10 13 19 21 20 21 21 23 23 24 25 24 25 26 25 27 28 29 30 30 31 30 29 28 29 29 29 29 33 33 32 28 30 30 31
6 6 6 5 5 5 4 4 4 4 4 5 4 4 4 4 5 6 14 12 12 14 19 17 17 18 19 20 21 23 24 24 26 26 27 29 29 29 28 28 30 28 31 30 31 31 29 30 29 28 28 28 29 29
5 6 5 5 5 5 5 5 4 4 4 4 4 4 4 4 5 5 9 11 13 17 20 20 20 19 18 18 19 21 24 22 23 22 25 28 27 29 28 28 29 29 31 29 29 31 29 28 29 27 27 27 28 29
5 5 5 5 5 5 5 4 4 4 4 4 4 4 4 4 4 5 9 11 12 16 19 20 18 18 18 18 18 19 19 20 21 24 24 26 26 28 28 28 28 29 27 29 29 28 29 28 26 26 26 27 28 29
5 5 5 5 5 5 5 4 4 4 4 4 4 4 4 4 5 5 9 11 11 13 18 21 20 19 18 17 18 18 19 19 22 23 24 25 27 25 26 28 28 29 27 25 26 26 25 25 26 26 26 26 26 26
5 5 5 5 5 5 5 4 4 4 4 4 4 4 4 5 6 7 15 12 12 12 16 20 20 20 19 18 19 19 20 20 21 23 24 25 24 24 24 26 27 27 26 26 25 25 25 26 25 26 26 26 26 24
4 4 5 5 5 5 4 4 4 4 4 4 4 4 5 5 6 10 11 9 9 11 16 20 21 21 20 20 20 21 20 22 22 23 23 24 25 23 23 24 24 23 25 25 24 25 25 26 26 26 26 25 24 23
4 4 4 4 4 4 4 4 4 4 4 4 5 5 6 7 7 10 10 8 9 12 16 19 19 21 20 21 21 23 22 22 22 22 24 24 24 23 22 24 25 24 24 23 25 25 25 26 26 26 25 25 25 22
4 4 4 4 4 4 4 4 4 4 4 5 6 7 7 8 10 11 9 9 9 12 17 19 20 18 22 20 20 21 23 22 24 22 23 23 23 22 23 23 24 24 23 23 23 24 25 25 23 24 25 25 25 23
4 4 4 4 4 4 4 4 4 5 5 6 6 10 11 11 9 9 9 12 13 15 16 18 22 19 22 21 21 20 21 21 20 21 24 23 23 24 24 24 23 22 22 23 22 23 24 24 23 23 23 23 25 24
4 4 4 4 4 4 4 4 5 5 6 8 12 11 11 9 11 12 13 14 14 15 18 20 21 18 22 19 19 21 18 20 19 21 22 22 23 24 24 23 22 22 22 22 22 22 23 24 21 22 21 22 22 23
4 4 4 4 4 4 4 4 5 6 9 8 8 11 12 12 12 13 14 16 16 16 19 19 20 21 18 21 18 19 20 21 20 23 21 22 17 20 20 19 18 21 22 22 21 22 22 23 23 24 23 24 23 23
4 4 4 4 4 4 4 4 5 5 7 9 11 13 13 12 10 13 15 17 16 18 17 18 17 20 20 20 19 19 19 21 23 20 21 18 18 18 18 18 18 18 19 21 21 21 21 22 22 23 23 24 24 21
4 4 4 4 4 4 4 4 5 5 6 13 13 8 13 14 16 18 17 16 18 17 18 18 18 19 19 18 19 18 21 21 18 19 18 18 17 17 18 18 18 17 17 18 20 20 20 21 22 22 23 24 24 23
4 4 4 4 4 4 4 5 5 6 10 13 15 11 15 17 18 16 17 17 17 18 17 18 18 18 18 18 19 19 18 18 18 16 17 17 17 16 16 17 17 16 16 16 17 19 19 19 21 21 22 23 24 24
4 4 5 4 4 4 5 5 6 9 12 14 14 15 17 16 17 18 18 16 18 18 18 18 17 17 17 18 18 18 19 19 17 17 18 18 16 16 16 16 14 12 13 13 14 16 16 17 19 20 22 23 23 22
6 7 5 4 4 4 5 6 10 12 13 13 15 16 16 16 17 17 16 16 18 17 16 16 15 17 18 17 17 20 18 17 17 17 17 16 14 14 14 12 11 12 12 13 13 14 15 16 17 18 18 18 19 18
6 5 5 5 5 5 7 8 11 13 12 14 14 15 16 16 16 15 16 17 18 16 16 16 17 16 16 17 18 18 17 17 17 16 16 13 10 10 10 11 10 10 11 12 13 14 13 14 14 14 13 12 12 11
7 5 5 6 6 8 12 12 12 13 14 15 15 15 15 15 16 16 18 16 16 16 17 17 15 16 16 17 16 17 17 17 15 12 10 9 10 10 10 11 11 12 12 12 12 13 13 13 13 13 12 12 11 10
6 6 5 6 6 9 13 13 12 13 14 15 15 16 15 15 15 17 16 16 15 15 14 15 17 17 17 16 16 16 15 12 9 9 10 10 10 10 10 11 11 11 11 12 12 13 13 12 12 12 11 11 11 11
7 5 5 6 9 11 14 14 15 14 14 15 15 16 15 16 15 14 13 13 13 13 14 16 16 14 14 14 12 9 8 8 9 9 10 10 10 10 10 10 11 11 11 11 11 11 11 11 10 11 11 10 10 9
8 7 9 9 11 12 13 13 13 14 15 14 15 15 15 14 12 9 8 9 10 13 13 13 12 12 12 10 8 8 9 9 9 9 10 10 10 10 10 10 10 10 10 10 10 10 10 10 10 10 10 10 10 10
8 8 11 12 12 10 10 13 13 14 14 13 13 11 10 9 8 8 8 8 8 8 8 8 7 7 7 8 9 9 9 10 10 10 10 10 10 10 10 10 11 12 11 11 10 10 9 10 9 10 11 11 11 11
9 11 12 13 12 10 13 11 12 10 9 9 9 9 9 8 7 7 7 7 7 7 8 8 8 10 10 10 10 10 9 9 9 9 10 11 12 12 12 12 12 12 12 12 12 11 11 11 12 14 14 15 16 16
9 8 9 5 12 12 10 10 8 7 8 9 9 8 8 7 7 6 7 8 8 9 10 10 10 10 10 10 10 10 10 11 11 11 11 13 14 13 13 13 14 13 13 12 13 13 13 15 16 17 17 17 16 16
7 10 8 10 11 9 9 8 7 8 9 9 9 9 8 8 8 7 8 8 8 9 10 10 10 10 10 10 11 11 12 14 16 15 14 14 16 18 17 16 17 16 15 15 15 15 15 16 16 16 16 15 15 16
8 8 8 8 8 6 7 7 8 8 10 10 9 9 10 9 8 9 8 8 9 9 9 10 11 11 12 13 13 13 14 15 16 16 16 17 17 17 17 17 17 17 17 17 17 17 16 16 16 16 16 16 16 16
6 6 7 6 6 7 8 9 10 11 12 13 11 11 10 8 9 8 8 8 9 10 11 11 11 13 15 15 16 16 16 16 16 17 17 17 16 16 16 15 15 15 15 14 16 16 16 16 16 16 16 16 15 15
7 6 7 8 9 9 11 11 12 13 14 14 13 11 10 10 9 8 9 10 10 11 12 12 12 14 16 16 17 18 19 19 18 18 18 18 18 17 16 16 16 16 15 14 14 13 14 14 15 15 15 15 14 14
9 8 9 10 12 12 14 15 14 15 15 14 13 12 12 12 11 11 11 13 14 15 16 16 16 16 18 18 18 18 18 19 19 19 19 18 18 17 17 17 17 16 16 16 15 14 13 14 13 14 14 14 14 14
13 14 13 14 14 16 16 17 16 16 16 16 16 16 15 16 16 17 17 17 17 18 18 18 18 19 19 18 18 18 18 17 17 17 17 17 17 17 16 16 16 16 16 16 16 16 15 15 15 15 14 14 13 13
15 14 15 14 14 17 18 18 17 17 17 18 18 19 18 18 17 17 17 17 18 18 17 18 18 18 18 17 17 17 17 17 16 16 16 16 16 16 16 16 16 15 15 15 15 15 15 14 15 14 13 12 12 11
16 16 17 17 17 16 18 18 18 18 19 18 19 19 19 19 17 18 17 18 18 18 19 18 18 17 17 17 16 16 15 14 14 13 13 13 14 14 14 15 15 14 15 15 15 14 14 13 13 12 12 12 11 11
Height
855 855 854 854 854 853 852 850 849 847 845 843 841 838 835 832 828 824 820 820 817 799 790 795 792 789 782 782 777 770 780 778 770 779 770 759 755 744 749 743 749 763 772 772 769 774 779 731 733 749 751 739 735 730
851 852 851 851 851 851 850 849 848 846 845 843 841 839 836 834 830 826 820 820 819 816 797 801 800 798 797 794 791 777 776 774 765 764 760 750 750 746 754 762 741 762 747 752 750 752 744 741 744 746 745 746 745 742
846 848 848 848 848 848 848 847 846 845 844 843 841 839 836 833 831 829 825 821 817 808 793 792 790 794 797 798 798 792 775 783 778 780 768 752 756 745 754 757 747 744 737 752 751 738 743 748 745 750 750 749 745 742
842 843 844 845 845 846 846 845 844 843 842 841 840 838 835 832 830 828 826 823 820 811 794 785 792 794 795 795 797 798 797 793 789 779 773 764 762 751 753 749 752 746 752 751 750 748 747 750 756 755 754 752 747 745
837 838 840 841 842 842 843 843 842 841 840 839 838 836 834 831 829 828 826 823 822 820 797 782 787 790 792 794 796 797 798 798 786 779 777 771 758 762 759 754 751 743 750 766 761 759 762 763 758 757 755 755 754 756
832 834 836 837 838 839 840 840 839 839 838 837 836 835 832 830 828 827 816 822 822 820 809 782 782 788 790 793 794 795 795 796 790 778 772 764 766 774 772 761 751 749 756 759 763 764 762 761 761 759 758 757 757 760
827 829 832 834 835 836 837 837 837 837 836 835 834 833 831 829 829 826 824 825 822 821 808 784 775 782 786 789 789 789 792 787 785 779 776 771 766 776 776 768 762 764 763 764 768 766 763 757 758 758 758 762 762 765
822 825 827 830 832 833 834 834 834 834 833 832 831 830 828 827 827 825 824 824 823 820 807 788 780 777 784 779 779 780 781 782 779 778 770 769 766 771 778 765 759 763 769 771 766 766 765 760 761 758 762 761 761 768
817 820 823 826 828 830 832 832 832 831 831 830 828 826 827 827 825 823 823 822 823 822 800 783 773 785 777 779 780 781 772 775 768 771 771 768 767 771 764 766 764 762 768 771 770 769 766 762 768 765 763 763 763 768
811 815 819 823 825 828 829 830 830 829 828 828 828 824 821 822 823 824 823 818 816 812 804 788 769 780 770 772 774 780 775 774 779 771 758 764 760 755 757 761 766 769 772 773 773 769 764 763 767 768 769 767 762 765
805 811 815 819 822 825 827 828 828 827 826 825 818 818 821 822 823 818 811 807 806 800 789 779 771 784 772 783 780 771 783 777 778 768 765 762 754 748 755 764 770 773 775 775 774 773 769 766 770 769 769 770 770 764
800 806 811 816 820 823 825 826 827 826 823 822 821 820 818 819 818 812 803 794 793 790 778 779 776 772 782 776 784 779 772 767 768 754 764 758 776 769 769 775 778 776 773 772 772 772 770 767 764 763 764 764 767 764
796 803 809 813 818 821 823 824 825 825 824 823 820 814 813 815 821 805 792 783 790 778 786 784 784 774 777 775 778 774 775 766 752 765 760 772 776 778 779 778 781 781 777 772 770 770 768 766 764 762 761 761 761 763
794 802 807 812 816 819 822 823 824 825 824 812 809 825 805 797 791 776 781 787 783 784 783 781 783 776 777 782 776 776 763 762 772 765 768 774 778 779 779 779 779 780 779 776 771 768 767 765 761 760 758 757 758 759
795 802 807 812 816 818 820 822 823 825 818 807 801 810 791 782 780 787 786 785 785 784 786 783 780 781 781 780 772 770 773 769 767 777 777 775 779 782 780 778 778 780 780 777 773 770 768 766 763 760 758 755 754 755
797 804 808 811 815 817 820 822 823 821 813 806 801 794 785 786 785 780 781 788 784 785 785 784 786 785 783 776 777 774 765 763 775 774 771 773 777 778 777 776 778 781 778 777 775 770 769 767 763 757 752 754 754 757
798 800 806 810 814 817 820 821 818 814 805 802 793 789 787 786 785 783 788 790 786 787 788 788 793 784 776 778 775 760 768 773 775 774 774 777 779 778 776 775 774 773 773 771 770 768 767 764 762 761 761 762 764 767
799 801 805 810 814 818 819 817 811 806 802 797 792 791 788 788 787 790 791 788 786 790 788 787 785 782 781 778 769 770 773 774 773 775 777 781 780 776 772 770 769 769 768 767 766 765 765 765 765 767 769 771 771 774
800 804 808 812 815 814 809 810 809 799 794 792 793 792 793 791 790 790 787 792 794 792 791 786 787 780 779 775 779 775 774 776 778 785 785 781 777 773 769 768 766 764 764 763 764 766 768 769 770 772 773 776 778 780
805 809 812 814 815 811 803 802 806 799 791 792 791 789 790 793 792 787 791 793 795 796 793 788 780 775 777 779 782 782 783 787 788 786 782 778 776 773 771 769 767 766 766 767 768 769 772 774 776 778 780 781 783 787
810 813 815 815 812 808 800 796 793 794 795 791 794 789 790 788 790 796 799 802 799 795 788 783 781 786 787 787 790 792 790 789 786 784 782 778 777 775 773 773 771 772 772 775 777 779 779 781 783 785 786 788 789 796
810 813 812 813 807 806 802 800 799 798 793 794 791 793 791 794 802 809 813 808 801 792 792 791 791 793 790 793 792 791 789 787 785 784 783 781 779 778 779 778 778 779 780 783 783 785 786 787 789 792 794 798 796 804
811 811 808 807 805 807 807 800 798 796 792 797 797 802 806 809 812 813 809 807 804 800 798 797 795 794 793 792 790 790 789 789 788 787 786 785 784 783 785 786 787 786 788 791 792 793 795 797 799 800 802 804 806 809
811 807 802 800 801 804 798 803 803 807 812 809 810 807 809 811 813 813 811 807 801 796 794 793 792 792 792 792 791 791 792 792 792 792 791 790 790 791 792 794 794 795 796 798 799 801 803 805 806 805 805 805 806 808
812 812 810 817 799 800 805 806 813 815 812 809 809 808 809 813 813 814 810 804 799 796 792 792 793 794 794 795 794 795 796 795 795 796 798 796 793 797 798 798 799 800 802 803 804 805 806 804 804 804 805 807 810 812
814 805 810 801 802 808 809 811 814 810 807 806 807 809 809 808 810 813 808 805 802 798 796 795 796 797 798 799 800 800 800 798 795 796 799 798 796 793 795 797 797 800 802 803 806 809 810 810 810 812 814 816 816 816
808 807 810 812 812 815 814 813 810 808 801 801 804 805 802 807 811 809 806 805 803 802 801 801 801 802 801 800 801 801 801 801 801 801 801 800 799 800 801 801 803 805 806 807 808 810 812 813 814 815 816 817 818 819
812 813 812 813 813 812 807 804 801 796 790 792 798 795 803 809 810 810 809 807 806 806 806 806 806 806 803 803 802 803 804 804 804 803 804 806 807 809 810 811 812 812 812 813 814 815 815 816 817 818 819 821 822 824
810 811 811 808 805 804 800 799 794 793 789 790 791 800 806 807 808 809 808 807 809 809 809 809 809 808 805 805 804 801 800 800 803 805 805 806 808 812 812 814 815 816 818 820 819 820 820 821 820 821 823 824 826 827
804 806 804 800 795 795 791 790 791 791 792 793 797 803 806 807 807 806 807 806 806 805 804 804 805 805 803 802 804 804 804 804 804 806 807 809 811 813 815 816 817 817 819 821 822 824 825 825 826 826 825 825 826 827
795 794 794 793 791 787 788 789 790 792 794 796 797 798 801 803 802 801 802 803 803 803 803 803 803 803 804 805 807 807 809 812 814 814 813 813 815 817 818 819 819 820 820 821 821 821 821 822 822 824 825 826 828 828
795 795 793 797 797 791 788 789 792 794 793 791 791 793 796 797 801 804 805 804 803 803 805 804 804 805 807 810 811 813 814 816 818 818 818 818 820 820 820 820 821 821 822 822 822 822 823 824 824 825 826 828 829 830
791 791 789 789 792 793 792 791 790 790 789 791 791 790 791 795 801 803 804 801 802 803 803 805 808 810 812 812 815 817 819 822 822 823 824 824 824 824 822 822 824 824 824 823 823 824 825 826 826 827 828 828 829 830
Wind_Speed
13 11 11 11 11 9 10 11 11 9 10 12 13 14 15 17 19 14 5 6 7 5 5 4 5 7 4 5 8 5 3 9 7 12 11 9 10 9 15 13 13 13 13 12 13 16 18 2 6 10 6 5 10 10
14 11 9 10 10 11 12 11 10 8 8 12 12 12 13 14 15 12 4 5 6 7 6 6 8 10 10 7 8 1 6 7 4 6 10 7 10 6 3 10 9 6 8 5 6 9 7 6 7 6 5 5 5 6
16 14 11 12 11 9 8 9 9 9 7 10 12 12 12 13 12 9 8 8 8 5 8 10 6 8 10 13 8 5 5 7 2 5 7 6 6 4 8 12 8 14 8 7 6 6 9 5 6 11 8 7 7 3
17 16 13 12 11 9 9 9 10 10 9 9 11 12 12 12 12 8 7 7 7 7 5 5 4 6 3 10 12 10 8 8 7 7 8 7 5 7 11 6 9 6 3 11 11 7 1 10 9 9 7 6 4 5
18 16 14 13 11 11 11 10 10 10 10 10 11 12 12 12 12 9 7 5 3 7 5 4 3 3 6 8 10 10 9 6 8 7 6 8 10 3 7 12 9 4 1 4 2 9 7 5 8 7 6 6 6 5
19 18 16 14 13 12 12 11 10 10 10 10 11 11 11 11 11 6 5 3 3 4 4 3 6 5 6 8 9 9 9 6 7 7 5 7 4 4 7 11 16 2 3 8 7 9 6 5 2 5 5 5 3 7
20 19 17 14 12 11 10 10 10 9 10 11 11 12 11 9 6 5 5 4 4 4 4 4 5 7 7 9 9 6 8 6 6 8 8 7 5 6 11 12 7 9 5 3 5 7 9 2 6 5 4 3 2 10
22 21 19 16 13 11 10 10 10 9 10 11 12 13 9 5 3 4 2 5 2 5 5 4 4 7 11 8 7 6 6 6 6 7 6 7 6 6 8 14 14 6 2 7 8 4 8 7 5 2 3 1 3 9
23 22 20 17 14 12 11 9 9 9 10 11 11 2 3 4 3 0 5 5 4 5 4 4 5 3 8 5 3 4 4 7 5 8 9 6 7 7 7 11 12 6 4 9 12 10 12 6 6 5 4 5 2 5
24 22 20 18 15 13 10 9 8 8 9 8 4 6 3 3 2 2 4 4 5 4 4 6 2 1 6 2 5 5 4 4 2 6 7 9 10 8 9 8 4 6 5 9 10 9 9 6 2 4 5 10 5 5
24 22 20 18 15 13 10 8 7 7 2 5 5 2 6 5 3 5 2 4 5 4 5 6 2 1 3 4 1 1 2 3 4 4 4 5 8 8 9 3 3 5 8 9 9 9 10 9 4 6 6 10 14 9
25 23 20 18 15 12 10 8 4 3 2 4 2 0 4 3 4 4 3 3 5 3 3 2 3 4 1 3 3 3 4 3 4 5 3 7 5 8 8 7 9 10 8 8 10 11 12 12 10 10 6 10 12 6
28 24 20 18 15 13 11 8 6 5 3 3 4 4 2 3 1 5 7 4 3 4 1 1 5 3 1 2 4 4 4 5 3 4 5 3 4 4 4 5 5 11 13 13 11 11 13 14 14 14 11 10 9 16
28 22 20 18 15 14 10 8 5 2 5 4 4 1 4 5 5 1 1 2 1 2 2 3 2 1 2 4 3 4 3 3 3 5 1 2 3 3 4 6 8 10 12 15 13 13 12 15 13 13 15 15 14 12
25 23 19 16 15 13 10 8 6 5 6 4 4 3 8 6 2 3 2 3 2 2 2 4 1 3 2 3 3 2 3 5 1 2 1 1 4 6 9 9 11 11 12 12 18 13 12 14 13 13 16 17 12 10
25 19 15 16 15 13 10 6 5 5 3 3 3 5 5 3 5 4 4 6 2 1 4 3 3 3 3 3 2 5 4 4 2 2 4 6 7 9 11 11 9 13 15 15 16 16 13 13 16 16 9 11 9 6
21 10 18 16 15 12 11 5 7 5 3 4 4 5 4 1 4 3 1 1 5 1 1 2 2 4 3 2 4 4 5 5 6 6 6 10 13 14 14 10 14 14 13 13 14 13 12 8 3 4 5 7 9 9
10 16 20 19 16 11 7 5 5 4 5 7 2 3 1 3 4 4 1 3 3 3 5 2 3 5 3 3 4 4 5 6 7 7 10 11 13 17 16 12 12 11 12 12 10 6 6 7 9 10 13 15 20 21
17 19 20 19 13 3 6 5 4 3 5 2 1 3 3 3 4 4 1 7 7 4 5 3 4 4 3 2 6 7 8 9 9 9 8 13 13 10 9 3 5 4 4 7 9 10 12 12 11 12 14 16 16 17
16 17 19 13 4 5 3 3 3 4 2 2 4 2 2 1 2 3 4 3 4 3 4 4 5 3 6 4 6 8 8 8 5 5 5 3 7 4 4 4 6 11 14 16 17 14 16 15 15 17 19 20 19 17
15 12 9 5 7 5 4 2 4 1 3 3 3 4 3 2 2 2 3 5 4 3 5 6 5 6 8 10 11 10 8 9 4 3 3 2 5 7 8 11 15 15 13 11 12 14 15 15 17 18 20 23 30 20
8 7 4 4 3 3 3 1 2 2 3 0 2 4 3 3 3 2 2 2 3 4 3 5 6 8 7 7 8 9 7 4 3 5 7 5 3 7 9 12 17 15 16 16 17 16 19 22 23 24 24 23 28 20
6 2 4 3 2 1 3 3 1 1 2 2 1 2 1 1 1 3 2 1 2 3 4 6 10 9 8 9 2 2 5 6 6 8 10 13 15 16 17 16 17 18 16 18 19 20 22 25 26 27 30 30 25 18
0 3 2 2 4 2 3 2 1 1 1 1 1 1 0 1 2 1 2 2 3 7 3 5 5 3 5 7 4 9 11 13 14 14 14 14 15 17 19 18 17 18 18 19 22 21 21 20 21 19 17 16 16 16
2 3 2 3 2 2 1 2 1 0 2 2 1 0 1 1 1 1 2 2 3 3 3 8 9 7 5 6 9 12 16 15 11 8 11 17 20 19 15 14 17 21 22 18 11 16 14 13 12 13 15 15 16 15
0 3 1 0 1 1 1 1 2 3 2 2 1 1 1 0 2 2 2 3 2 3 5 6 7 7 7 10 6 8 8 13 16 15 12 15 9 15 14 12 11 10 17 21 20 17 15 12 12 13 14 14 10 12
2 2 2 3 2 1 1 2 2 2 2 2 2 2 2 2 2 2 2 3 2 7 11 12 13 13 8 12 13 16 17 9 13 14 14 12 13 13 14 14 13 13 13 12 12 12 12 11 12 12 11 10 9 7
0 1 2 3 2 3 2 2 2 2 1 3 3 2 2 1 1 1 1 2 9 12 11 8 12 9 9 11 14 13 15 12 10 13 15 15 15 14 14 14 13 15 15 12 10 12 10 10 9 8 7 7 7 7
2 3 3 4 4 4 1 1 2 3 3 2 3 3 2 1 1 2 5 12 13 8 11 8 4 3 7 12 7 6 7 10 12 9 10 8 11 12 12 13 13 12 12 9 12 11 12 10 9 7 5 5 4 2
3 4 2 2 3 2 3 4 8 7 12 14 11 8 5 4 13 17 13 11 10 14 14 13 15 13 8 6 7 7 8 7 8 9 8 7 10 10 9 9 8 8 7 6 6 5 2 3 3 3 2 2 2 1
4 6 12 10 9 8 9 12 15 16 12 10 9 10 9 6 7 7 10 9 10 10 9 9 9 9 10 10 9 8 11 11 11 9 8 9 9 8 6 4 3 2 2 1 1 1 3 3 0 0 1 2 3 4
5 6 9 13 7 4 8 11 12 10 9 9 10 10 9 7 8 6 7 6 6 7 5 5 5 7 8 8 9 11 11 11 8 6 6 8 7 5 3 3 3 3 2 1 0 1 1 2 1 1 0 1 2 2
8 7 8 9 9 8 8 6 8 7 7 7 7 7 7 7 8 5 3 2 8 9 8 9 9 9 6 8 9 9 10 8 8 7 5 4 4 5 7 6 4 2 1 1 1 1 1 0 1 1 2 3 3 3
Wind_Direction
261 269 297 286 290 291 306 326 331 337 346 345 348 352 356 354 356 6 346 353 333 301 319 344 302 285 288 272 257 89 181 224 230 225 243 243 248 233 233 240 199 202 212 227 234 245 244 34 285 260 33 14 359 2
248 260 281 273 280 290 291 308 321 325 338 338 343 345 351 350 355 360 303 353 321 266 344 316 277 273 281 323 320 273 313 287 232 250 233 260 245 232 265 234 222 254 227 258 254 234 83 43 39 35 360 357 348 352
242 252 265 265 274 287 278 296 309 317 316 333 335 339 343 345 349 355 319 327 297 260 248 224 206 207 235 244 271 291 198 2 285 339 317 279 260 311 233 235 263 214 237 264 306 180 83 35 68 40 11 357 336 337
241 245 250 257 262 269 280 293 301 306 308 305 320 330 334 335 333 334 306 321 295 291 276 119 142 212 219 224 227 240 297 320 284 276 266 275 273 254 272 341 296 72 20 240 255 76 300 80 36 18 7 12 7 48
240 240 239 247 257 264 274 284 292 296 304 301 308 319 323 325 327 318 281 277 303 308 329 7 164 147 182 192 211 220 242 272 272 238 236 249 255 342 260 277 269 287 347 314 35 17 347 22 11 7 3 21 20 62
243 234 234 242 253 256 268 279 283 290 296 297 303 310 315 321 330 303 200 162 290 313 278 242 99 170 161 176 188 198 221 236 254 262 262 270 91 319 269 242 227 117 27 15 24 341 343 296 350 346 344 351 33 83
230 226 230 238 247 249 259 273 278 282 290 296 300 302 303 306 306 300 349 351 332 292 250 252 176 158 164 173 188 202 204 233 236 243 245 271 235 188 254 267 116 16 346 6 335 314 277 3 2 12 343 59 216 95
226 225 228 233 241 242 256 267 276 278 288 297 299 297 285 282 290 273 319 277 282 269 265 270 144 165 186 197 188 203 206 218 216 248 255 229 240 207 256 263 273 164 240 299 289 315 307 323 290 350 335 217 177 131
225 225 225 228 230 236 250 262 272 278 290 299 306 244 169 205 230 43 279 250 225 278 280 246 318 116 177 232 107 238 254 216 218 216 229 250 234 231 233 234 258 285 325 321 307 288 280 289 30 358 326 271 202 154
220 220 220 219 221 228 242 255 269 278 293 298 258 211 177 122 201 235 212 207 202 197 242 261 357 195 209 229 221 147 254 264 237 259 245 231 239 250 236 216 295 337 318 289 289 272 258 351 140 263 325 318 253 151
209 214 210 212 214 220 230 248 264 297 234 217 222 125 131 153 209 230 237 212 195 223 202 253 296 145 144 264 292 157 221 231 245 201 237 221 232 198 175 102 274 271 266 275 289 293 290 281 211 245 195 290 294 145
197 206 204 204 205 213 219 235 228 232 286 318 341 170 177 192 227 248 230 196 232 204 247 247 182 211 255 283 190 264 259 283 266 144 262 248 72 52 45 36 359 315 279 281 289 287 286 284 275 260 276 209 233 196
196 198 196 196 200 204 214 218 218 234 285 220 231 204 154 228 255 238 186 178 220 159 228 221 223 213 250 281 243 225 236 233 345 202 220 59 117 77 37 354 327 311 288 283 283 286 278 271 259 261 247 251 215 201
188 186 186 190 193 199 205 204 199 170 249 230 178 294 223 200 228 149 218 34 168 176 221 270 210 238 221 212 238 242 222 307 257 251 62 134 71 340 328 311 309 305 310 306 295 289 292 276 269 260 253 247 228 193
170 176 178 185 187 193 192 193 187 223 263 230 215 229 212 236 80 113 233 159 134 206 296 293 281 260 256 276 230 290 243 228 215 56 130 57 327 306 294 310 304 306 298 288 286 291 288 287 287 269 247 246 227 208
161 160 174 185 181 183 179 169 199 216 234 253 233 249 242 173 222 192 173 176 190 18 296 235 247 236 242 257 258 245 291 343 59 326 316 343 327 300 292 298 281 280 280 276 271 279 279 278 269 264 208 214 198 164
146 158 178 178 174 168 162 199 188 218 246 236 227 253 236 218 234 94 77 79 255 47 323 310 257 222 273 262 265 302 360 9 22 350 341 350 332 315 301 297 283 281 271 265 266 268 265 249 219 158 86 70 115 116
107 144 164 164 152 151 182 223 230 223 230 230 307 292 286 278 332 71 125 359 331 17 304 354 284 234 256 300 299 18 7 338 344 348 342 335 310 300 289 276 275 265 256 250 243 189 132 135 119 100 95 92 88 84
140 148 154 151 167 272 179 188 254 250 219 211 214 212 204 211 160 202 247 60 319 336 291 272 275 272 268 317 335 333 342 339 337 334 305 299 302 313 314 316 280 245 171 166 159 120 103 98 100 109 107 103 99 95
140 144 150 156 197 257 189 155 216 258 249 195 224 197 298 123 260 302 26 335 339 301 247 230 245 356 342 2 350 332 336 344 315 303 298 311 334 342 5 19 70 80 72 73 67 83 92 86 89 97 97 90 83 87
122 145 157 180 202 269 301 184 221 67 290 191 205 238 251 195 45 331 308 352 270 239 234 246 290 320 341 333 339 323 304 298 275 248 289 324 24 42 57 71 77 82 82 86 89 83 87 91 97 101 102 102 98 86
122 150 198 192 259 192 261 223 353 336 245 160 323 9 318 351 354 30 331 252 276 298 326 325 329 326 324 325 319 308 293 350 34 59 52 40 63 66 62 76 87 81 73 80 82 84 87 91 94 95 98 101 101 110
142 196 216 203 236 107 265 216 252 283 294 51 296 195 176 200 50 331 265 283 277 259 269 287 288 280 263 290 248 108 106 94 66 65 60 64 75 85 81 73 89 94 84 80 91 89 87 97 98 100 107 110 117 124
183 271 277 205 184 241 100 18 75 33 335 259 253 250 133 19 11 5 280 266 263 285 238 228 231 139 107 81 68 85 95 95 87 78 76 80 81 87 92 93 87 88 99 103 107 110 114 117 123 130 138 134 116 109
233 296 151 281 272 162 139 190 178 231 259 214 235 173 115 90 27 340 287 289 302 323 71 91 86 82 93 85 73 73 97 105 103 100 103 100 106 108 101 107 107 114 122 121 109 116 145 130 124 108 99 101 107 107
220 200 140 182 168 120 153 213 209 216 224 178 126 123 205 3 52 4 310 308 311 344 55 60 87 92 81 79 93 88 91 108 101 98 142 160 117 92 117 128 121 136 147 130 127 124 126 124 97 99 103 98 105 115
233 181 67 18 62 123 231 246 251 257 225 158 138 201 183 62 58 331 305 359 337 55 76 87 100 109 119 105 113 138 142 130 86 74 77 96 89 93 88 85 87 94 98 99 98 103 109 119 120 122 123 114 102 100
201 189 206 174 210 219 271 217 237 248 166 113 155 42 68 112 105 280 309 335 110 104 89 85 109 106 83 105 109 104 107 114 115 104 92 88 85 83 87 93 83 80 85 78 105 111 112 114 113 107 102 95 83 66
206 182 205 205 214 203 214 180 339 43 51 136 127 90 83 75 182 169 186 166 153 151 125 124 129 136 106 109 116 106 106 103 93 105 108 106 106 105 111 115 119 109 110 92 70 68 56 57 58 71 77 89 94 96
163 180 239 217 153 90 113 124 108 93 79 85 99 112 112 125 171 158 172 189 194 183 160 159 168 168 157 120 94 85 100 98 97 101 101 103 106 106 107 104 107 108 108 111 115 118 142 149 166 164 173 160 140 120
156 136 110 103 112 123 135 130 120 120 121 122 119 112 119 138 127 115 111 119 128 135 134 129 126 129 128 128 134 126 96 88 83 71 69 101 94 80 78 88 107 103 100 64 286 221 141 217 72 7 139 359 17 305
122 97 105 103 102 123 122 126 126 130 138 141 134 136 144 125 115 125 148 156 157 120 83 125 124 88 92 105 89 85 93 114 112 84 49 70 78 67 83 73 63 46 27 46 339 133 165 283 282 321 198 247 287 295
139 149 134 117 120 129 127 111 100 104 100 107 122 130 127 100 109 134 187 116 144 157 143 118 119 109 104 105 105 105 89 98 97 97 87 74 52 22 359 41 37 0 354 340 6 79 197 262 260 277 281 278 262 266